Flag for Germany Weather past 2 weeks in Waren (Müritz), Mecklenburg-Western Pomerania, Germany

Now
52 °F

Broken clouds.


Feels Like: 49 °F
Forecast: 48 / 56 °F
Wind: 8 mph from South

Location: Laage

Current Time: Oct 25, 2014 at 2:25:05 PM

Latest Report: Oct 25, 2014 at 1:20 PM


Visibility: 4 mi

Pressure: 30.07 "Hg

Humidity: 82%

Dew point: 46 °F

Location of Waren (Müritz)Location

Historic Weather in Waren (Müritz) — Graph

°F

Waren (Müritz) temperature yesterday

Maximum temperature yesterday: 52 °F (at 11:20 AM)
Minimum temperature yesterday: 45 °F (at 11:20 PM)
Average temperature yesterday: 49 °F

Past Weeks' High & Low Weather Summary

 TemperatureHumidityPressure
High70 °F (Oct 19, 2:20 PM)100% (Oct 11, 12:20 AM)30.21 "Hg (Oct 11, 12:20 AM)
Low45 °F (Oct 24, 11:20 PM)63% (Oct 20, 3:20 PM)29.39 "Hg (Oct 21, 9:20 PM)
Average54 °F92%29.88 "Hg
* Reported Oct 10 1:20 PM — Oct 25 1:20 PM, Waren (Müritz), Weather by CustomWeather, © 2014

Note: Actual official high and low records may vary slightly from our data, if they occured in-between our weather recording intervals... More about our weather records

Advertising

Waren (Müritz) weather history for previous 24 hours

 ConditionsComfort  
Time TempWeatherWind HumidityBarometerVisibility
1:20 PM
Oct 25
52 °FBroken clouds.8 mph82%30.07 "Hg4 mi
12:20 PM48 °FBroken clouds.8 mph87%30.07 "Hg4 mi
11:20 AM46 °FBroken clouds.6 mph93%30.07 "Hg4 mi
10:20 AM46 °FFog.7 mph87%30.07 "Hg3 mi
9:20 AM45 °FFog.7 mph93%30.07 "Hg3 mi
8:20 AM45 °FLight rain. Fog.7 mph93%30.07 "Hg3 mi
8:01 AM45 °FLight rain. Fog.7 mph93%30.07 "Hg3 mi
7:20 AM45 °FPassing clouds.8 mph93%30.07 "Hg4 mi
6:45 AM45 °FPassing clouds.8 mph93%30.07 "Hg4 mi
6:20 AM45 °FPassing clouds.9 mph93%30.07 "Hg4 mi
5:20 AM45 °FLight rain. Passing clouds.9 mph93%30.07 "Hg4 mi
4:20 AM45 °FLight rain. Passing clouds.9 mph93%30.07 "Hg4 mi
3:20 AM45 °FLight rain. Passing clouds.8 mph93%30.09 "Hg4 mi
2:20 AM45 °FLow clouds.8 mph93%30.09 "Hg5 mi
1:20 AM45 °FLow clouds.9 mph93%30.12 "Hg4 mi
12:20 AM45 °FPassing clouds.9 mph93%30.12 "Hg4 mi
11:20 PM
Oct 24
45 °FPassing clouds.10 mph93%30.12 "Hg4 mi
10:20 PM46 °FPassing clouds.12 mph87%30.12 "Hg4 mi
9:20 PM46 °FLow clouds.8 mph93%30.12 "Hg4 mi
8:20 PM48 °FPassing clouds.7 mph87%30.15 "Hg4 mi
7:20 PM48 °FPartly cloudy.10 mph87%30.15 "Hg4 mi
6:20 PM48 °FBroken clouds.8 mph94%30.15 "Hg4 mi
5:20 PM52 °FBroken clouds.7 mph82%30.15 "HgN/A
4:20 PM52 °FBroken clouds.8 mph88%30.15 "Hg6 mi
3:20 PM52 °FMore clouds than sun.8 mph82%30.15 "Hg5 mi
2:20 PM52 °FMore clouds than sun.8 mph82%30.18 "Hg5 mi
Weather by CustomWeather, © 2014

See weather overviewHow to use our weather pages